Weather History for KPSC - November, 2011

Change the Weather History Date:

Thursday, November 3, 2011

  Actual Average Record
Temperature  
Mean Temperature 38 °F 46 °F  
Max Temperature 53 °F 57 °F 67 °F (2007)
Min Temperature 22 °F 35 °F 13 °F (2002)
Degree Days  
Heating Degree Days 27 19  
Month to date heating degree days 79 57  
Since 1 July heating degree days 472 575  
Cooling Degree Days 0 0  
Month to date cooling degree days 0 0  
Year to date cooling degree days 632 710  
Moisture  
Dew Point 33 °F    
Average Humidity 75    
Maximum Humidity 92    
Minimum Humidity 58    
Precipitation  
Precipitation T in 0.02 in 0.35 in (2004)
Month to date precipitation T 0.08  
Year to date precipitation 5.96 6.61  
Snow  
Snow 0.00 in - - ()
Snow Depth 0.00 in    
Sea Level Pressure  
Sea Level Pressure 29.83 in    
Wind  
Wind Speed 4 mph (NNE)    
Max Wind Speed 10 mph    
Max Gust Speed 10 mph    
Visibility 10 miles    
Events Rain    
T = Trace of Precipitation, MM = Missing Value Source: NWS Daily Summary

Daily Weather History Graph

Daily Weather History Graph

Search for Another Location

Airport or City:

Trip Planner

Search our weather history database for the weather conditions in past years. The results will help you decide how hot, cold, wet, or windy it might be!

Date:

Astronomy

Nov. 03, 2011 Rise Set
Actual Time 7:40 AM PDT 5:39 PM PDT
Civil Twilight 7:08 AM PDT 6:10 PM PDT
Nautical Twilight 6:33 AM PDT 6:46 PM PDT
Astronomical Twilight 5:58 AM PDT 7:21 PM PDT
Moon 2:25 PM PDT (11/3) 12:35 AM PDT (11/3)
Length of Visible Light 11h 02m
Length of Day
9h 58m
First Quarter, 61% of the Moon is Illuminated
Nov 3
First Quarter
Nov 10
Full
Nov 18
Last Quarter
Nov 24
New
Dec 2
First Quarter

Hourly Weather History & Observations

Time (PDT) Temp. Windchill Dew Point Humidity Pressure Visibility Wind Dir Wind Speed Gust Speed Precip Events Conditions
2:53 AM 30.9 °F 25.2 °F 26.1 °F 82% 29.84 in 10.0 mi NW 5.8 mph - N/A   Clear
3:53 AM 33.1 °F 26.9 °F 27.0 °F 78% 29.84 in 10.0 mi NW 6.9 mph - N/A   Partly Cloudy
4:53 AM 36.0 °F 32.1 °F 28.9 °F 76% 29.84 in 10.0 mi North 4.6 mph - N/A   Partly Cloudy
5:53 AM 37.0 °F 34.5 °F 30.0 °F 76% 29.84 in 10.0 mi NW 3.5 mph - N/A   Clear
6:53 AM 36.0 °F 32.1 °F 30.0 °F 79% 29.84 in 10.0 mi North 4.6 mph - N/A   Clear
7:53 AM 37.0 °F - 28.9 °F 73% 29.85 in 10.0 mi Calm Calm - N/A   Clear
8:53 AM 37.9 °F 35.5 °F 30.9 °F 76% 29.87 in 10.0 mi NNE 3.5 mph - N/A   Mostly Cloudy
9:53 AM 43.0 °F 41.3 °F 33.1 °F 68% 29.86 in 10.0 mi North 3.5 mph - N/A   Overcast
10:53 AM 45.0 °F - 30.9 °F 58% 29.86 in 10.0 mi Calm Calm - N/A   Overcast
11:53 AM 46.9 °F - 33.1 °F 59% 29.86 in 10.0 mi Calm Calm - N/A   Overcast
12:53 PM 46.9 °F - 37.0 °F 68% 29.85 in 10.0 mi Calm Calm - 0.00 in Rain Light Rain
1:53 PM 48.9 °F - 37.0 °F 64% 29.84 in 10.0 mi Calm Calm - 0.00 in   Overcast
2:53 PM 50.0 °F - 37.0 °F 61% 29.83 in 10.0 mi Calm Calm - N/A   Overcast
3:53 PM 50.0 °F - 37.0 °F 61% 29.83 in 10.0 mi SE 4.6 mph - N/A   Overcast
4:53 PM 48.9 °F - 37.0 °F 64% 29.81 in 10.0 mi ESE 5.8 mph - N/A   Scattered Clouds
5:53 PM 46.9 °F - 37.9 °F 71% 29.81 in 10.0 mi ESE 4.6 mph - N/A   Partly Cloudy
6:53 PM 45.0 °F 41.2 °F 37.9 °F 76% 29.80 in 10.0 mi SE 6.9 mph - N/A   Clear
7:53 PM 43.0 °F - 36.0 °F 76% 29.81 in 10.0 mi Calm Calm - N/A   Clear
8:53 PM 42.1 °F - 36.0 °F 79% 29.80 in 10.0 mi Calm Calm - N/A   Clear
9:53 PM 37.9 °F 33.5 °F 35.1 °F 89% 29.80 in 10.0 mi NNE 5.8 mph - N/A   Clear
10:53 PM 37.9 °F - 35.1 °F 89% 29.80 in 10.0 mi Calm Calm - N/A   Clear
11:53 PM 37.0 °F 32.4 °F 34.0 °F 89% 29.80 in 10.0 mi NW 5.8 mph - N/A   Clear